| time (UTC) | temp F | wind direction | speed MPH | gust MPH | rain 1hr in | rain 24hr in | rain mn in | humidity % | barometer mb |
| 20260505102013 | 53 | 213 | 1.0 | 3.0 | 0.00 | 0.00 | 0.00 | 79 | 1011.8 |
| 20260505101013 | 53 | 229 | 1.0 | 2.0 | 0.00 | 0.00 | 0.00 | 79 | 1011.7 |
| 20260505100512 | 54 | 0 | 1.0 | 2.0 | 0.00 | 0.00 | 0.00 | 79 | 1011.6 |
| 20260505100034 | 54 | 0 | 0.0 | 2.0 | 0.00 | 0.00 | 0.00 | 79 | 1011.6 |
| 20260505095517 | 54 | 0 | 0.0 | 2.0 | 0.00 | 0.00 | 0.00 | 79 | 1011.6 |
| 20260505095016 | 54 | 0 | 0.0 | 2.0 | 0.00 | 0.00 | 0.00 | 79 | 1011.6 |
| 20260505094532 | 54 | 221 | 0.0 | 2.0 | 0.00 | 0.00 | 0.00 | 79 | 1011.7 |
| 20260505094013 | 54 | 0 | 0.0 | 2.0 | 0.00 | 0.00 | 0.00 | 79 | 1011.5 |
| 20260505093512 | 54 | 0 | 0.0 | 2.0 | 0.00 | 0.00 | 0.00 | 79 | 1011.5 |
| 20260505093031 | 54 | 221 | 0.0 | 2.0 | 0.00 | 0.00 | 0.00 | 78 | 1011.6 |
| 20260505092513 | 55 | 0 | 0.0 | 5.0 | 0.00 | 0.00 | 0.00 | 78 | 1011.5 |
| 20260505092013 | 55 | 221 | 2.0 | 5.0 | 0.00 | 0.00 | 0.00 | 79 | 1011.5 |
| 20260505091528 | 55 | 215 | 2.0 | 5.0 | 0.00 | 0.00 | 0.00 | 79 | 1011.5 |
| 20260505091009 | 55 | 204 | 2.0 | 5.0 | 0.00 | 0.00 | 0.00 | 79 | 1011.5 |
| 20260505090511 | 55 | 217 | 1.0 | 5.0 | 0.00 | 0.00 | 0.00 | 79 | 1011.4 |
| 20260505090029 | 55 | 209 | 1.0 | 5.0 | 0.00 | 0.00 | 0.00 | 79 | 1011.3 |
| 20260505085512 | 55 | 222 | 1.0 | 3.0 | 0.00 | 0.00 | 0.00 | 78 | 1011.2 |
| 20260505085010 | 55 | 250 | 1.0 | 4.0 | 0.00 | 0.00 | 0.00 | 78 | 1011.0 |
| 20260505084534 | 55 | 186 | 1.0 | 4.0 | 0.00 | 0.00 | 0.00 | 78 | 1010.9 |
| 20260505084010 | 56 | 233 | 1.0 | 3.0 | 0.00 | 0.00 | 0.00 | 78 | 1010.8 |
| 20260505083517 | 56 | 240 | 0.0 | 8.0 | 0.00 | 0.00 | 0.00 | 78 | 1010.7 |
| 20260505083030 | 56 | 211 | 3.0 | 8.0 | 0.00 | 0.00 | 0.00 | 78 | 1010.7 |
| 20260505082515 | 56 | 217 | 2.0 | 6.0 | 0.00 | 0.00 | 0.00 | 78 | 1010.6 |
| 20260505082012 | 56 | 218 | 2.0 | 6.0 | 0.00 | 0.00 | 0.00 | 78 | 1010.7 |
| 20260505081529 | 56 | 215 | 1.0 | 6.0 | 0.00 | 0.00 | 0.00 | 78 | 1010.6 |
| 20260505081013 | 56 | 217 | 1.0 | 6.0 | 0.00 | 0.00 | 0.00 | 78 | 1010.6 |
| 20260505080517 | 56 | 211 | 1.0 | 4.0 | 0.00 | 0.00 | 0.00 | 78 | 1010.6 |
| 20260505080030 | 56 | 224 | 1.0 | 4.0 | 0.00 | 0.00 | 0.00 | 78 | 1010.6 |
| 20260505075513 | 56 | 238 | 1.0 | 3.0 | 0.00 | 0.00 | 0.00 | 78 | 1010.4 |
| 20260505075012 | 56 | 231 | 1.0 | 2.0 | 0.00 | 0.00 | 0.00 | 78 | 1010.3 |
| 20260505074534 | 56 | 240 | 0.0 | 2.0 | 0.00 | 0.00 | 0.00 | 78 | 1010.3 |
| 20260505074014 | 57 | 240 | 0.0 | 2.0 | 0.00 | 0.00 | 0.00 | 77 | 1010.3 |
| 20260505073515 | 57 | 217 | 0.0 | 2.0 | 0.00 | 0.00 | 0.00 | 77 | 1010.3 |
| 20260505073029 | 57 | 217 | 0.0 | 2.0 | 0.00 | 0.00 | 0.00 | 77 | 1010.2 |
| 20260505072510 | 57 | 0 | 0.0 | 2.0 | 0.00 | 0.00 | 0.00 | 77 | 1010.1 |
| 20260505072011 | 57 | 217 | 0.0 | 1.0 | 0.00 | 0.00 | 0.00 | 76 | 1010.2 |
| 20260505071528 | 58 | 0 | 0.0 | 4.0 | 0.00 | 0.00 | 0.00 | 76 | 1010.0 |
| 20260505071014 | 58 | 0 | 0.0 | 4.0 | 0.00 | 0.00 | 0.00 | 76 | 1009.9 |
| 20260505070515 | 58 | 213 | 1.0 | 4.0 | 0.00 | 0.00 | 0.00 | 76 | 1009.9 |
| 20260505070031 | 58 | 213 | 0.0 | 2.0 | 0.00 | 0.00 | 0.00 | 76 | 1009.9 |
| 20260505065510 | 58 | 213 | 0.0 | 4.0 | 0.00 | 0.00 | 0.00 | 76 | 1009.8 |
| 20260505065012 | 58 | 0 | 1.0 | 7.0 | 0.00 | 0.00 | 0.00 | 76 | 1009.7 |
| 20260505064533 | 59 | 198 | 2.0 | 7.0 | 0.00 | 0.00 | 0.00 | 76 | 1009.7 |
| 20260505064013 | 59 | 226 | 2.0 | 5.0 | 0.00 | 0.00 | 0.00 | 76 | 1009.7 |
| 20260505063509 | 59 | 191 | 1.0 | 4.0 | 0.00 | 0.00 | 0.00 | 76 | 1009.7 |
| 20260505063027 | 59 | 245 | 1.0 | 4.0 | 0.00 | 0.00 | 0.00 | 76 | 1009.7 |
| 20260505062511 | 59 | 235 | 1.0 | 3.0 | 0.00 | 0.00 | 0.00 | 76 | 1009.7 |
| 20260505062013 | 59 | 249 | 0.0 | 2.0 | 0.00 | 0.00 | 0.00 | 76 | 1009.5 |
| 20260505061527 | 59 | 246 | 1.0 | 2.0 | 0.00 | 0.00 | 0.00 | 76 | 1009.5 |
| 20260505061010 | 59 | 246 | 1.0 | 3.0 | 0.00 | 0.00 | 0.00 | 76 | 1009.5 |
| 20260505060513 | 60 | 0 | 0.0 | 3.0 | 0.00 | 0.00 | 0.00 | 76 | 1009.4 |
| 20260505060026 | 60 | 246 | 1.0 | 3.0 | 0.00 | 0.00 | 0.00 | 75 | 1009.5 |
| 20260505055514 | 60 | 211 | 1.0 | 3.0 | 0.00 | 0.00 | 0.00 | 75 | 1009.4 |
| 20260505055014 | 60 | 223 | 1.0 | 3.0 | 0.00 | 0.00 | 0.00 | 75 | 1009.4 |
| 20260505054543 | 60 | 236 | 0.0 | 3.0 | 0.00 | 0.00 | 0.00 | 74 | 1009.4 |
| 20260505054014 | 60 | 236 | 1.0 | 3.0 | 0.00 | 0.00 | 0.00 | 74 | 1009.3 |
| 20260505053516 | 60 | 236 | 1.0 | 3.0 | 0.00 | 0.00 | 0.00 | 73 | 1009.3 |
| 20260505053030 | 60 | 0 | 1.0 | 2.0 | 0.00 | 0.00 | 0.00 | 72 | 1009.3 |
| 20260505052512 | 61 | 0 | 0.0 | 2.0 | 0.00 | 0.00 | 0.00 | 71 | 1009.4 |
| 20260505052010 | 61 | 219 | 0.0 | 1.0 | 0.00 | 0.00 | 0.00 | 70 | 1009.3 |
| 20260505051530 | 61 | 219 | 0.0 | 1.0 | 0.00 | 0.00 | 0.00 | 69 | 1009.4 |
| 20260505051013 | 61 | 0 | 0.0 | 1.0 | 0.00 | 0.00 | 0.00 | 68 | 1009.3 |
| 20260505050513 | 62 | 0 | 0.0 | 1.0 | 0.00 | 0.00 | 0.00 | 67 | 1009.3 |
| 20260505041531 | 65 | 0 | 0.0 | 0.0 | 0.00 | 0.00 | 0.00 | 58 | 1008.5 |
| 20260505041013 | 66 | 0 | 0.0 | 0.0 | 0.00 | 0.00 | 0.00 | 57 | 1008.5 |
| 20260505040511 | 66 | 0 | 0.0 | 0.0 | 0.00 | 0.00 | 0.00 | 55 | 1008.5 |
| 20260505040032 | 67 | 0 | 0.0 | 2.0 | 0.00 | 0.00 | 0.00 | 54 | 1008.5 |
| 20260505035513 | 67 | 0 | 0.0 | 2.0 | 0.00 | 0.00 | 0.00 | 53 | 1008.4 |
| 20260505035012 | 68 | 0 | 0.0 | 1.0 | 0.00 | 0.00 | 0.00 | 52 | 1008.3 |
| 20260505034528 | 69 | 0 | 0.0 | 2.0 | 0.00 | 0.00 | 0.00 | 51 | 1008.3 |
| 20260505034012 | 69 | 0 | 0.0 | 3.0 | 0.00 | 0.00 | 0.00 | 50 | 1008.2 |
| 20260505033512 | 69 | 0 | 1.0 | 3.0 | 0.00 | 0.00 | 0.00 | 49 | 1008.2 |
| 20260505033030 | 70 | 0 | 1.0 | 4.0 | 0.00 | 0.00 | 0.00 | 49 | 1008.2 |
| 20260505032511 | 70 | 215 | 1.0 | 4.0 | 0.00 | 0.00 | 0.00 | 48 | 1008.1 |
| 20260505032011 | 70 | 200 | 1.0 | 3.0 | 0.00 | 0.00 | 0.00 | 47 | 1008.2 |
| 20260505031529 | 71 | 224 | 1.0 | 4.0 | 0.00 | 0.00 | 0.00 | 47 | 1008.1 |
| 20260505031012 | 71 | 208 | 2.0 | 7.0 | 0.00 | 0.00 | 0.00 | 47 | 1008.1 |
| 20260505030513 | 71 | 212 | 3.0 | 7.0 | 0.00 | 0.00 | 0.00 | 47 | 1008.0 |
| 20260505030042 | 72 | 206 | 2.0 | 6.0 | 0.00 | 0.00 | 0.00 | 46 | 1008.1 |
| 20260505025515 | 72 | 209 | 2.0 | 8.0 | 0.00 | 0.00 | 0.00 | 46 | 1008.1 |
| 20260505025011 | 72 | 205 | 4.0 | 9.0 | 0.00 | 0.00 | 0.00 | 46 | 1008.1 |
| 20260505024527 | 72 | 212 | 5.0 | 9.0 | 0.00 | 0.00 | 0.00 | 46 | 1008.1 |
| 20260505024012 | 72 | 201 | 3.0 | 8.0 | 0.00 | 0.00 | 0.00 | 46 | 1008.2 |
| 20260505023512 | 73 | 215 | 3.0 | 8.0 | 0.00 | 0.00 | 0.00 | 46 | 1008.1 |
| 20260505023032 | 73 | 217 | 4.0 | 8.0 | 0.00 | 0.00 | 0.00 | 46 | 1008.2 |
| 20260505022510 | 73 | 225 | 4.0 | 10.0 | 0.00 | 0.00 | 0.00 | 47 | 1008.2 |
| 20260505022011 | 73 | 230 | 6.0 | 10.0 | 0.00 | 0.00 | 0.00 | 47 | 1008.2 |
| 20260505021531 | 74 | 221 | 6.0 | 10.0 | 0.00 | 0.00 | 0.00 | 47 | 1008.3 |
| 20260505021012 | 74 | 198 | 4.0 | 9.0 | 0.00 | 0.00 | 0.00 | 48 | 1008.3 |
| 20260505020511 | 74 | 237 | 3.0 | 12.0 | 0.00 | 0.00 | 0.00 | 48 | 1008.4 |
| 20260505020029 | 74 | 219 | 5.0 | 12.0 | 0.00 | 0.00 | 0.00 | 47 | 1008.4 |
| 20260505015512 | 75 | 204 | 5.0 | 11.0 | 0.00 | 0.00 | 0.00 | 48 | 1008.4 |
| 20260505015012 | 76 | 200 | 6.0 | 11.0 | 0.00 | 0.00 | 0.00 | 47 | 1008.5 |
| 20260505014537 | 76 | 191 | 5.0 | 14.0 | 0.00 | 0.00 | 0.00 | 46 | 1008.5 |
| 20260505014011 | 76 | 217 | 7.0 | 14.0 | 0.00 | 0.00 | 0.00 | 46 | 1008.5 |
| 20260505013512 | 77 | 221 | 7.0 | 11.0 | 0.00 | 0.00 | 0.00 | 45 | 1008.5 |
| 20260505013027 | 78 | 193 | 4.0 | 10.0 | 0.00 | 0.00 | 0.00 | 46 | 1008.4 |
| 20260505012513 | 78 | 222 | 5.0 | 10.0 | 0.00 | 0.00 | 0.00 | 44 | 1008.4 |
| 20260505012014 | 78 | 161 | 5.0 | 10.0 | 0.00 | 0.00 | 0.00 | 44 | 1008.4 |
| 20260505011527 | 79 | 207 | 4.0 | 9.0 | 0.00 | 0.00 | 0.00 | 43 | 1008.4 |
| 20260505011012 | 78 | 210 | 4.0 | 9.0 | 0.00 | 0.00 | 0.00 | 44 | 1008.4 |
| 20260505010512 | 78 | 164 | 5.0 | 9.0 | 0.00 | 0.00 | 0.00 | 43 | 1008.4 |
| 20260505010029 | 79 | 221 | 5.0 | 10.0 | 0.00 | 0.00 | 0.00 | 42 | 1008.5 |
| 20260505005516 | 79 | 184 | 5.0 | 10.0 | 0.00 | 0.00 | 0.00 | 41 | 1008.5 |
| 20260505005013 | 79 | 196 | 4.0 | 9.0 | 0.00 | 0.00 | 0.00 | 41 | 1008.4 |
| 20260505004552 | 79 | 178 | 6.0 | 11.0 | 0.00 | 0.00 | 0.00 | 40 | 1008.3 |
| 20260505004009 | 80 | 201 | 6.0 | 11.0 | 0.00 | 0.00 | 0.00 | 39 | 1008.4 |
| 20260505003511 | 80 | 252 | 3.0 | 10.0 | 0.00 | 0.00 | 0.00 | 38 | 1008.4 |
| 20260505003027 | 80 | 213 | 5.0 | 10.0 | 0.00 | 0.00 | 0.00 | 36 | 1008.4 |
| 20260505002512 | 81 | 196 | 5.0 | 10.0 | 0.00 | 0.00 | 0.00 | 36 | 1008.4 |
| 20260505002013 | 81 | 219 | 3.0 | 8.0 | 0.00 | 0.00 | 0.00 | 37 | 1008.5 |
| 20260505001528 | 81 | 213 | 3.0 | 9.0 | 0.00 | 0.00 | 0.00 | 35 | 1008.6 |
| 20260505001012 | 81 | 202 | 6.0 | 9.0 | 0.00 | 0.00 | 0.00 | 36 | 1008.5 |
| 20260505000516 | 81 | 231 | 3.0 | 7.0 | 0.00 | 0.00 | 0.00 | 37 | 1008.6 |
| 20260505000033 | 81 | 195 | 3.0 | 10.0 | 0.00 | 0.00 | 0.00 | 38 | 1008.6 |
| 20260504235512 | 81 | 185 | 4.0 | 10.0 | 0.00 | 0.00 | 0.00 | 38 | 1008.6 |
| 20260504235012 | 80 | 228 | 2.0 | 10.0 | 0.00 | 0.00 | 0.00 | 39 | 1008.6 |
| 20260504234528 | 80 | 198 | 6.0 | 12.0 | 0.00 | 0.00 | 0.00 | 36 | 1008.7 |
| 20260504234012 | 80 | 209 | 6.0 | 12.0 | 0.00 | 0.00 | 0.00 | 37 | 1008.7 |
| 20260504233509 | 80 | 205 | 3.0 | 11.0 | 0.00 | 0.00 | 0.00 | 37 | 1008.7 |
| 20260504233028 | 80 | 167 | 4.0 | 8.0 | 0.00 | 0.00 | 0.00 | 38 | 1008.8 |
| 20260504232510 | 80 | 246 | 3.0 | 9.0 | 0.00 | 0.00 | 0.00 | 39 | 1008.8 |
| 20260504232014 | 80 | 190 | 4.0 | 11.0 | 0.00 | 0.00 | 0.00 | 39 | 1008.8 |
| 20260504231530 | 80 | 211 | 5.0 | 11.0 | 0.00 | 0.00 | 0.00 | 39 | 1008.8 |
| 20260504231014 | 80 | 213 | 2.0 | 8.0 | 0.00 | 0.00 | 0.00 | 39 | 1009.0 |
| 20260504230513 | 80 | 221 | 4.0 | 10.0 | 0.00 | 0.00 | 0.00 | 41 | 1009.0 |
| 20260504230028 | 80 | 246 | 5.0 | 12.0 | 0.00 | 0.00 | 0.00 | 40 | 1009.1 |
| 20260504225513 | 80 | 196 | 4.0 | 12.0 | 0.00 | 0.00 | 0.00 | 39 | 1009.1 |
| 20260504225011 | 80 | 242 | 2.0 | 12.0 | 0.00 | 0.00 | 0.00 | 43 | 1009.1 |
| 20260504224534 | 80 | 255 | 6.0 | 11.0 | 0.00 | 0.00 | 0.00 | 41 | 1009.2 |
| 20260504224011 | 80 | 196 | 3.0 | 11.0 | 0.00 | 0.00 | 0.00 | 38 | 1009.2 |
| 20260504223512 | 80 | 235 | 5.0 | 12.0 | 0.00 | 0.00 | 0.00 | 39 | 1009.2 |
| 20260504223026 | 80 | 194 | 7.0 | 12.0 | 0.00 | 0.00 | 0.00 | 38 | 1009.2 |
| 20260504222511 | 80 | 207 | 6.0 | 12.0 | 0.00 | 0.00 | 0.00 | 39 | 1009.2 |
| 20260504222010 | 80 | 207 | 6.0 | 12.0 | 0.00 | 0.00 | 0.00 | 41 | 1009.3 |
| 20260504221536 | 80 | 200 | 5.0 | 11.0 | 0.00 | 0.00 | 0.00 | 41 | 1009.3 |
| 20260504221011 | 80 | 248 | 3.0 | 11.0 | 0.00 | 0.00 | 0.00 | 43 | 1009.4 |
| 20260504220513 | 80 | 173 | 5.0 | 9.0 | 0.00 | 0.00 | 0.00 | 40 | 1009.3 |
| 20260504220029 | 80 | 257 | 2.0 | 9.0 | 0.00 | 0.00 | 0.00 | 43 | 1009.3 |
| 20260504215514 | 81 | 219 | 3.0 | 9.0 | 0.00 | 0.00 | 0.00 | 43 | 1009.3 |
| 20260504215015 | 80 | 205 | 3.0 | 10.0 | 0.00 | 0.00 | 0.00 | 42 | 1009.3 |
| 20260504214528 | 80 | 235 | 4.0 | 10.0 | 0.00 | 0.00 | 0.00 | 43 | 1009.3 |
| 20260504214012 | 80 | 212 | 2.0 | 7.0 | 0.00 | 0.00 | 0.00 | 40 | 1009.3 |
| 20260504213514 | 79 | 246 | 1.0 | 8.0 | 0.00 | 0.00 | 0.00 | 44 | 1009.4 |
| 20260504213036 | 79 | 227 | 3.0 | 8.0 | 0.00 | 0.00 | 0.00 | 40 | 1009.4 |
| 20260504212510 | 79 | 242 | 2.0 | 7.0 | 0.00 | 0.00 | 0.00 | 42 | 1009.4 |
| 20260504212011 | 79 | 233 | 2.0 | 7.0 | 0.00 | 0.00 | 0.00 | 41 | 1009.5 |
| 20260504211533 | 79 | 236 | 3.0 | 5.0 | 0.00 | 0.00 | 0.00 | 43 | 1009.5 |
| 20260504211012 | 78 | 266 | 2.0 | 9.0 | 0.00 | 0.00 | 0.00 | 41 | 1009.6 |
| 20260504210512 | 78 | 259 | 3.0 | 9.0 | 0.00 | 0.00 | 0.00 | 43 | 1009.5 |
| 20260504210026 | 79 | 248 | 2.0 | 5.0 | 0.00 | 0.00 | 0.00 | 44 | 1009.6 |
| 20260504205512 | 79 | 243 | 2.0 | 14.0 | 0.00 | 0.00 | 0.00 | 43 | 1009.6 |
| 20260504205015 | 80 | 221 | 3.0 | 14.0 | 0.00 | 0.00 | 0.00 | 44 | 1009.7 |
| 20260504204528 | 80 | 192 | 4.0 | 10.0 | 0.00 | 0.00 | 0.00 | 44 | 1009.7 |
| 20260504204011 | 79 | 238 | 2.0 | 13.0 | 0.00 | 0.00 | 0.00 | 48 | 1009.6 |
| 20260504203513 | 79 | 238 | 6.0 | 13.0 | 0.00 | 0.00 | 0.00 | 47 | 1009.7 |
| 20260504203033 | 78 | 234 | 2.0 | 6.0 | 0.00 | 0.00 | 0.00 | 50 | 1009.6 |
| 20260504202513 | 78 | 249 | 2.0 | 7.0 | 0.00 | 0.00 | 0.00 | 48 | 1009.8 |
| 20260504202010 | 78 | 242 | 2.0 | 6.0 | 0.00 | 0.00 | 0.00 | 48 | 1009.8 |
| 20260504201528 | 78 | 246 | 2.0 | 8.0 | 0.00 | 0.00 | 0.00 | 50 | 1009.8 |
| 20260504201009 | 78 | 265 | 3.0 | 10.0 | 0.00 | 0.00 | 0.00 | 50 | 1009.8 |
| 20260504200510 | 78 | 248 | 2.0 | 10.0 | 0.00 | 0.00 | 0.00 | 50 | 1009.8 |
| 20260504200030 | 78 | 203 | 3.0 | 7.0 | 0.00 | 0.00 | 0.00 | 48 | 1009.9 |
| 20260504195512 | 78 | 0 | 2.0 | 7.0 | 0.00 | 0.00 | 0.00 | 49 | 1009.8 |
| 20260504195012 | 78 | 251 | 2.0 | 7.0 | 0.00 | 0.00 | 0.00 | 50 | 1009.8 |
| 20260504194528 | 78 | 213 | 2.0 | 5.0 | 0.00 | 0.00 | 0.00 | 50 | 1009.9 |
| 20260504194012 | 78 | 250 | 2.0 | 4.0 | 0.00 | 0.00 | 0.00 | 50 | 1009.8 |
| 20260504193509 | 78 | 232 | 2.0 | 4.0 | 0.00 | 0.00 | 0.00 | 50 | 1009.8 |
| 20260504193027 | 79 | 248 | 1.0 | 9.0 | 0.00 | 0.00 | 0.00 | 52 | 1009.8 |
| 20260504192513 | 79 | 248 | 4.0 | 9.0 | 0.00 | 0.00 | 0.00 | 48 | 1009.9 |
| 20260504192018 | 79 | 196 | 3.0 | 9.0 | 0.00 | 0.00 | 0.00 | 51 | 1009.9 |
| 20260504191548 | 78 | 228 | 2.0 | 6.0 | 0.00 | 0.00 | 0.00 | 50 | 1009.8 |
| 20260504191013 | 78 | 205 | 2.0 | 6.0 | 0.00 | 0.00 | 0.00 | 49 | 1009.8 |
| 20260504190510 | 78 | 232 | 1.0 | 5.0 | 0.00 | 0.00 | 0.00 | 46 | 1009.8 |
| 20260504190028 | 79 | 271 | 2.0 | 7.0 | 0.00 | 0.00 | 0.00 | 44 | 1009.9 |
| 20260504185509 | 78 | 236 | 3.0 | 7.0 | 0.00 | 0.00 | 0.00 | 45 | 1009.9 |
| 20260504185013 | 78 | 249 | 1.0 | 4.0 | 0.00 | 0.00 | 0.00 | 44 | 1009.9 |
| 20260504184540 | 78 | 300 | 0.0 | 4.0 | 0.00 | 0.00 | 0.00 | 40 | 1009.9 |
| 20260504184015 | 79 | 221 | 1.0 | 4.0 | 0.00 | 0.00 | 0.00 | 43 | 1009.9 |
| 20260504183029 | 78 | 262 | 1.0 | 3.0 | 0.00 | 0.00 | 0.00 | 41 | 1010.0 |
| 20260504182517 | 77 | 94 | 1.0 | 4.0 | 0.00 | 0.00 | 0.00 | 41 | 1010.0 |
| 20260504182010 | 77 | 0 | 2.0 | 5.0 | 0.00 | 0.00 | 0.00 | 42 | 1009.9 |
| 20260504181533 | 77 | 0 | 1.0 | 5.0 | 0.00 | 0.00 | 0.00 | 43 | 1009.9 |
| 20260504181010 | 77 | 233 | 1.0 | 4.0 | 0.00 | 0.00 | 0.00 | 47 | 1009.8 |
| 20260504180512 | 76 | 192 | 2.0 | 4.0 | 0.00 | 0.00 | 0.00 | 48 | 1009.9 |
| 20260504180033 | 76 | 279 | 0.0 | 3.0 | 0.00 | 0.00 | 0.00 | 46 | 1010.0 |
| 20260504175510 | 76 | 5 | 1.0 | 3.0 | 0.00 | 0.00 | 0.00 | 47 | 1010.1 |
| 20260504175019 | 75 | 213 | 1.0 | 3.0 | 0.00 | 0.00 | 0.00 | 52 | 1010.0 |
| 20260504174530 | 75 | 5 | 0.0 | 4.0 | 0.00 | 0.00 | 0.00 | 46 | 1010.0 |
| 20260504174010 | 74 | 284 | 0.0 | 4.0 | 0.00 | 0.00 | 0.00 | 48 | 1010.0 |
| 20260504173512 | 74 | 0 | 0.0 | 3.0 | 0.00 | 0.00 | 0.00 | 48 | 1010.0 |
| 20260504173028 | 74 | 127 | 1.0 | 4.0 | 0.00 | 0.00 | 0.00 | 48 | 1010.0 |
| 20260504172512 | 73 | 360 | 1.0 | 4.0 | 0.00 | 0.00 | 0.00 | 48 | 1010.1 |
| 20260504172012 | 73 | 292 | 0.0 | 5.0 | 0.00 | 0.00 | 0.00 | 51 | 1010.0 |
| 20260504171526 | 73 | 344 | 2.0 | 5.0 | 0.00 | 0.00 | 0.00 | 50 | 1010.1 |
| 20260504171011 | 73 | 327 | 2.0 | 4.0 | 0.00 | 0.00 | 0.00 | 49 | 1010.1 |
| 20260504170513 | 73 | 319 | 1.0 | 3.0 | 0.00 | 0.00 | 0.00 | 52 | 1010.1 |
| 20260504151014 | 64 | 59 | 0.0 | 3.0 | 0.00 | 0.00 | 0.00 | 65 | 1010.4 |
| 20260504150516 | 64 | 59 | 1.0 | 3.0 | 0.00 | 0.00 | 0.00 | 68 | 1010.3 |
| 20260504141013 | 53 | 317 | 0.0 | 3.0 | 0.00 | 0.00 | 0.00 | 88 | 1009.9 |
| 20260504140509 | 52 | 317 | 0.0 | 3.0 | 0.00 | 0.00 | 0.00 | 89 | 1009.9 |
| 20260504130510 | 49 | 0 | 0.0 | 0.0 | 0.00 | 0.00 | 0.00 | 90 | 1009.5 |
| 20260504110512 | 51 | 0 | 0.0 | 2.0 | 0.00 | 0.00 | 0.00 | 88 | 1009.5 |